< < Back
Terminal Aerodrome Forecast


Current Version              Previous Versions:   1  2  3  4  5  6  7  8  9  

Terminal Aerodrome Forecast

170
FTUS44 KMOB 291733
TAFPNS
TAF
KPNS 291733Z 2918/3018 VRB03KT P6SM SCT040 SCT250
     FM291900 21007KT P6SM SCT040 SCT250
     FM300000 27006KT P6SM FEW040 SCT250
     FM300300 31003KT P6SM SCT250=



Latest METAR

728
SAUS70 KWBC 301400 RRC
MTRPNS
METAR KPNS 301353Z 34005KT 10SM CLR 28/21 A3003 RMK AO2 SLP170
T02830211


USA.gov is the U.S. government's official web portal to all federal, state and local government web resources and services.